User: anonymous   Login
Location: Cabobito
(9.9667°N, 67.8000°W)
Time: 13:38:13
(UTC+00:00)
Language:

STARLINK-31719 - Orbit

View from above orbital plane
View from above orbital plane
View from above satellite
View from above satellite

Ground track
Ground track

The orbit data is extracted from the following two-line orbital elements,

1 59495C 24071M   24174.42548611  .00008314  00000+0  19841-3 0  1741
2 59495  43.0015 310.8863 0001217 257.1945 248.3110 15.40682948    17
Epoch (UTC): 22 June 2024 10:12:42
Eccentricity: 0.0001217
inclination: 43.0015°
perigee height: 443 km
apogee height: 445 km
right ascension of ascending node: 310.8863°
argument of perigee: 257.1945°
revolutions per day: 15.40682948
mean anomaly at epoch: 248.3110°
orbit number at epoch: 1

The dashed part of the orbit path shows where the satellite is in the earth's shadow,  

DLR